Location: Champs
(48.8539°N, 2.6040°E)
Time: 05:53:34
(UTC+00:00)

COSMOS 2428 - Pass Details

Date: 26 October 2021
Orbit: 844 x 857 km, 70.9° (Epoch: 04 December)

Event Time Altitude Azimuth Distance (km) Brightness Sun altitude
Rises 05:48:00 0° 323° (NW) 3,425 5.4 -7.1°
Reaches altitude 10° 05:50:46 10° 312° (NW) 2,487 4.6 -6.6°
Maximum altitude 05:55:29 27° 256° (WSW) 1,569 3.6 -5.9°
Drops below altitude 10° 06:00:12 10° 200° (SSW) 2,480 5.1 -5.1°
Sets 06:02:58 0° 189° (S) 3,413 5.9 -4.7°
